This is the latest recevied weather packets stored in our database for station/object SV9TNF-52. If no packets are shown the sender has not sent any weather packets the latest 10 day(s).
| Time | Temp. | Humidity | Pressure | Rain* | Wind** | Luminosity | Snow |
|---|---|---|---|---|---|---|---|
| 1788411545 | 24.44° C | 50% | 1018 hPa | 0 mm | 4.92 m/s, 288° | - | - |
| 1788411244 | 23.89° C | 51% | 1018 hPa | 0 mm | 5.81 m/s, 212° | - | - |
| 1788410944 | 23.33° C | 51% | 1018 hPa | 0 mm | 5.81 m/s, 224° | - | - |
| 1788410644 | 23.33° C | 51% | 1018 hPa | 0 mm | 6.26 m/s, 110° | - | - |
| 1788410344 | 23.33° C | 50% | 1018 hPa | 0 mm | 5.81 m/s, 196° | - | - |
| 1788410045 | 22.78° C | 51% | 1018 hPa | 0 mm | 6.26 m/s, 197° | - | - |
| 1788409744 | 22.78° C | 52% | 1018 hPa | 0 mm | 7.15 m/s, 247° | - | - |
| 1788409444 | 22.22° C | 53% | 1018 hPa | 0 mm | 7.6 m/s, 147° | - | - |
| 1788409144 | 21.67° C | 54% | 1018 hPa | 0 mm | 5.36 m/s, 192° | - | - |
| 1788408844 | 21.67° C | 55% | 1018 hPa | 0 mm | 5.81 m/s, 233° | - | - |
| 1788408543 | 21.67° C | 56% | 1018 hPa | 0 mm | 5.81 m/s, 191° | - | - |
| 1788408243 | 21.67° C | 55% | 1018 hPa | 0 mm | 6.71 m/s, 215° | - | - |
| 1788407944 | 21.67° C | 55% | 1017.6 hPa | 0 mm | 5.81 m/s, 228° | - | - |
| 1788407643 | 21.67° C | 54% | 1017.6 hPa | 0 mm | 4.92 m/s, 196° | - | - |
| 1788407343 | 21.67° C | 54% | 1018 hPa | 0 mm | 7.6 m/s, 131° | - | - |
| 1788407043 | 21.67° C | 54% | 1018 hPa | 0 mm | 5.81 m/s, 186° | - | - |
| 1788406744 | 21.67° C | 55% | 1018 hPa | 0 mm | 4.02 m/s, 226° | - | - |
| 1788406443 | 21.67° C | 55% | 1017.6 hPa | 0 mm | 6.26 m/s, 181° | - | - |
| 1788406143 | 22.22° C | 54% | 1017.6 hPa | 0 mm | 5.81 m/s, 114° | - | - |
| 1788405843 | 22.22° C | 55% | 1017.6 hPa | 0 mm | 5.81 m/s, 221° | - | - |
| 1788405542 | 22.22° C | 56% | 1017.6 hPa | 0 mm | 4.47 m/s, 209° | - | - |
| 1788405242 | 22.22° C | 56% | 1017.6 hPa | 0 mm | 4.47 m/s, 225° | - | - |
| 1788404942 | 21.67° C | 56% | 1017.6 hPa | 0 mm | 5.81 m/s, 224° | - | - |
| 1788404642 | 21.67° C | 56% | 1017.6 hPa | 0 mm | 4.92 m/s, 206° | - | - |
| 1788404342 | 21.67° C | 56% | 1017.6 hPa | 0 mm | 8.05 m/s, 222° | - | - |
* Rain latest hour (hover to see other rain measurements)
** Current wind speed in m/s (hover to see current wind gust speed)